FW6467 Weather Reports


time (UTC)temp
C
wind
direction
speed
KPH
gust
KPH
rain 1hr
cm
rain 24hr
cm
rain mn
cm
humidity
%
barometer
mb
20260505041548 -17 526.3 410.4 0.00 0.00 0.00 1008.9
20260505041543 14 99 0.0 0.0 0.00 0.00 0.00 75 1008.7
20260505041125 14 99 0.0 0.0 0.00 0.00 0.00 75 1008.8
20260505041023 14 99 0.0 0.0 0.00 0.00 0.00 75 1008.6
20260505040505 14 99 0.0 0.0 0.00 0.00 0.00 75 1008.7
20260505040459 14 99 0.0 0.0 0.00 0.00 0.00 75 1008.5
20260505040105 14 99 0.0 0.0 0.00 0.00 0.00 75 1008.8
20260505035958 14 99 0.0 0.0 0.00 0.00 0.00 75 1008.6
20260505035511 13 99 0.0 0.0 0.00 0.00 0.00 75 1008.8
20260505035502 14 99 0.0 0.0 0.00 0.00 0.00 76 1008.6
20260505035458 14 99 0.0 0.0 0.00 0.00 0.00 75 1008.6
20260505034504 13 93 0.0 0.0 0.00 0.00 0.00 76 1008.8
20260505034457 13 93 0.0 0.0 0.00 0.00 0.00 76 1008.6
20260505034106 13 93 0.0 0.0 0.00 0.00 0.00 77 1008.8
20260505034000 13 93 0.0 0.0 0.00 0.00 0.00 77 1008.5
20260505033728 13 91 0.0 0.0 0.00 0.00 0.00 77 1008.6
20260505033117 13 91 0.0 1.6 0.00 0.00 0.00 78 1008.9
20260505032958 13 91 0.0 1.6 0.00 0.00 0.00 78 1008.7
20260505032729 13 91 0.0 1.6 0.00 0.00 0.00 78 1008.7
20260505032103 13 91 0.0 4.8 0.00 0.00 0.00 78 1009.0
20260505031958 13 91 1.6 4.8 0.00 0.00 0.00 78 1008.8
20260505031504 13 179 1.6 4.8 0.00 0.00 0.00 78 1009.0
20260505031459 13 179 1.6 4.8 0.00 0.00 0.00 78 1008.8
20260505031224 13 91 1.6 4.8 0.00 0.00 0.00 79 1008.8
20260505030725 13 91 1.6 4.8 0.00 0.00 0.00 78 1008.8
20260505030100 13 134 1.6 4.8 0.00 0.00 0.00 78 1009.1
20260505025954 13 179 1.6 3.2 0.00 0.00 0.00 78 1008.8
20260505025658 13 177 1.6 4.8 0.00 0.00 0.00 79 1009.0
20260505025454 13 91 1.6 4.8 0.00 0.00 0.00 80 1008.9
20260505025057 12 179 1.6 4.8 0.00 0.00 0.00 79 1009.0
20260505024954 13 178 1.6 4.8 0.00 0.00 0.00 79 1008.9
20260505024726 13 178 1.6 4.8 0.00 0.00 0.00 79 1008.8
20260505024718 13 178 1.6 4.8 0.00 0.00 0.00 80 1008.9
20260505023656 13 90 0.0 1.6 0.00 0.00 0.00 81 1009.1
20260505023456 13 90 0.0 1.6 0.00 0.00 0.00 80 1008.8
20260505023106 13 179 0.0 3.2 0.00 0.00 0.00 79 1008.9
20260505022954 13 179 0.0 3.2 0.00 0.00 0.00 79 1008.7
20260505022659 13 179 0.0 3.2 0.00 0.00 0.00 79 1009.0
20260505022453 13 174 0.0 3.2 0.00 0.00 0.00 78 1008.8
20260505022101 13 176 0.0 1.6 0.00 0.00 0.00 78 1009.1
20260505021954 13 96 0.0 0.0 0.00 0.00 0.00 77 1008.8
20260505021501 13 96 0.0 0.0 0.00 0.00 0.00 74 1008.9
20260505021456 13 96 0.0 0.0 0.00 0.00 0.00 74 1008.7
20260505021053 13 96 0.0 0.0 0.00 0.00 0.00 73 1008.9
20260505020954 13 96 0.0 0.0 0.00 0.00 0.00 73 1008.7
20260505020654 13 96 0.0 0.0 0.00 0.00 0.00 74 1009.0
20260505020454 13 96 0.0 0.0 0.00 0.00 0.00 74 1008.9
20260505020054 13 96 0.0 0.0 0.00 0.00 0.00 74 1009.1
20260505015954 13 96 0.0 0.0 0.00 0.00 0.00 74 1009.0
20260505015653 13 96 0.0 0.0 0.00 0.00 0.00 73 1009.2
20260505015454 13 96 0.0 0.0 0.00 0.00 0.00 73 1009.1
20260505015228 13 96 0.0 0.0 0.00 0.00 0.00 74 1009.0
20260505014649 13 96 0.0 0.0 0.00 0.00 0.00 74 1009.2
20260505014456 13 96 0.0 0.0 0.00 0.00 0.00 74 1009.0
20260505014048 13 96 0.0 0.0 0.00 0.00 0.00 74 1009.4
20260505013954 13 96 0.0 0.0 0.00 0.00 0.00 74 1009.1
20260505013648 13 96 0.0 0.0 0.00 0.00 0.00 74 1009.4
20260505013500 13 96 0.0 0.0 0.00 0.00 0.00 74 1009.3
20260505013226 13 96 0.0 0.0 0.00 0.00 0.00 74 1009.3
20260505012649 13 96 0.0 0.0 0.00 0.00 0.00 75 1009.5
20260505012455 13 96 0.0 0.0 0.00 0.00 0.00 75 1009.3
20260505012048 13 96 0.0 1.6 0.00 0.00 0.00 76 1009.6
20260505011954 13 96 0.0 1.6 0.00 0.00 0.00 76 1009.4
20260505011649 13 96 0.0 1.6 0.00 0.00 0.00 76 1009.7
20260505011454 13 96 0.0 1.6 0.00 0.00 0.00 77 1009.4
20260505011044 13 96 0.0 1.6 0.00 0.00 0.00 76 1009.8
20260505010954 13 96 0.0 1.6 0.00 0.00 0.00 76 1009.5
20260505010647 13 96 0.0 1.6 0.00 0.00 0.00 75 1009.8
20260505010454 14 96 0.0 1.6 0.00 0.00 0.00 75 1009.5
20260505010041 14 109 0.0 0.0 0.00 0.00 0.00 73 1009.8
20260505005952 14 108 0.0 0.0 0.00 0.00 0.00 73 1009.6
20260505005636 14 109 0.0 1.6 0.00 0.00 0.00 71 1009.8
20260505005452 14 109 0.0 1.6 0.00 0.00 0.00 70 1009.6
20260505005030 14 109 0.0 1.6 0.00 0.00 0.00 69 1009.8
20260505004950 14 109 0.0 1.6 0.00 0.00 0.00 70 1009.6
20260505004629 14 109 0.0 0.0 0.00 0.00 0.00 70 1009.8
20260505004450 14 109 0.0 0.0 0.00 0.00 0.00 70 1009.7
20260505004023 14 109 0.0 0.0 0.00 0.00 0.00 69 1009.9
20260505003951 14 109 0.0 0.0 0.00 0.00 0.00 69 1009.7
20260505003623 14 109 0.0 0.0 0.00 0.00 0.00 69 1009.9
20260505003449 14 109 0.0 0.0 0.00 0.00 0.00 69 1009.9
20260505003020 14 109 0.0 1.6 0.00 0.00 0.00 69 1010.1
20260505002947 14 109 0.0 1.6 0.00 0.00 0.00 69 1009.9
20260505002617 14 109 0.0 1.6 0.00 0.00 0.00 69 1010.2
20260505002446 14 109 0.0 1.6 0.00 0.00 0.00 69 1010.0
20260505002015 14 109 0.0 1.6 0.00 0.00 0.00 69 1010.3
20260505001945 14 109 0.0 1.6 0.00 0.00 0.00 69 1010.1
20260505001611 14 109 0.0 1.6 0.00 0.00 0.00 69 1010.3
20260505001444 14 109 0.0 1.6 0.00 0.00 0.00 69 1010.1
20260505001002 13 101 0.0 1.6 0.00 0.00 0.00 69 1010.3
20260505000944 14 108 0.0 1.6 0.00 0.00 0.00 69 1010.1
20260505000601 13 108 0.0 1.6 0.00 0.00 0.00 69 1010.4
20260505000441 14 108 0.0 1.6 0.00 0.00 0.00 69 1010.2
20260505000152 13 108 0.0 1.6 0.00 0.00 0.00 70 1010.4
20260504235942 13 108 0.0 1.6 0.00 0.00 0.00 70 1010.2
20260504235550 13 98 0.0 0.0 0.00 0.00 0.00 70 1010.4
20260504235441 13 98 0.0 1.6 0.00 0.00 0.00 71 1010.3
20260504235149 13 98 0.0 1.6 0.00 0.00 0.00 71 1010.5
20260504234942 13 98 0.0 1.6 0.00 0.00 0.00 71 1010.4
20260504234609 13 98 0.0 1.6 0.00 0.00 0.00 71 1010.5
20260504234441 13 98 0.0 0.0 0.00 0.00 0.00 72 1010.3
20260504234141 13 98 0.0 0.0 0.00 0.00 0.00 72 1010.5
20260504233940 13 98 0.0 1.6 0.00 0.00 0.00 72 1010.2
20260504233538 13 98 0.0 1.6 0.00 0.00 0.00 72 1010.5
20260504233440 13 98 0.0 1.6 0.00 0.00 0.00 72 1010.3
20260504233209 13 98 0.0 0.0 0.00 0.00 0.00 72 1010.5
20260504233202 13 98 0.0 1.6 0.00 0.00 0.00 72 1010.6
20260504232538 13 98 0.0 0.0 0.00 0.00 0.00 72 1010.7
20260504232438 13 98 0.0 1.6 0.00 0.00 0.00 72 1010.6
20260504232206 13 98 0.0 3.2 0.00 0.00 0.00 71 1010.6
20260504232156 13 98 0.0 3.2 0.00 0.00 0.00 71 1010.8
20260504231547 13 98 0.0 3.2 0.00 0.00 0.00 71 1010.7
20260504231434 13 98 0.0 3.2 0.00 0.00 0.00 71 1010.6
20260504231131 13 98 0.0 1.6 0.00 0.00 0.00 70 1010.8
20260504230938 13 98 0.0 1.6 0.00 0.00 0.00 70 1010.6
20260504230526 13 98 0.0 1.6 0.00 0.00 0.00 70 1010.9
20260504230431 13 98 0.0 1.6 0.00 0.00 0.00 70 1010.7
20260504230122 13 98 0.0 1.6 0.00 0.00 0.00 70 1011.0
20260504225929 13 98 0.0 1.6 0.00 0.00 0.00 70 1010.8
20260504225525 13 98 0.0 1.6 0.00 0.00 0.00 70 1011.1
20260504225428 13 98 0.0 1.6 0.00 0.00 0.00 70 1010.9
20260504225158 14 98 0.0 3.2 0.00 0.00 0.00 70 1011.0
20260504225150 13 98 0.0 1.6 0.00 0.00 0.00 70 1011.2
20260504224658 14 98 0.0 3.2 0.00 0.00 0.00 70 1011.0
20260504224642 14 98 0.0 3.2 0.00 0.00 0.00 70 1011.3
20260504224110 14 97 0.0 3.2 0.00 0.00 0.00 69 1011.3
20260504223925 14 97 0.0 1.6 0.00 0.00 0.00 69 1011.1
20260504223507 14 97 0.0 1.6 0.00 0.00 0.00 68 1011.4
20260504223424 14 97 0.0 1.6 0.00 0.00 0.00 68 1011.2
20260504223102 13 97 0.0 3.2 0.00 0.00 0.00 69 1011.3
20260504222922 13 97 0.0 3.2 0.00 0.00 0.00 69 1011.2
20260504222502 13 96 0.0 3.2 0.00 0.00 0.00 71 1011.4
20260504222422 13 97 0.0 3.2 0.00 0.00 0.00 71 1011.3
20260504222154 13 98 0.0 4.8 0.00 0.00 0.00 73 1011.3
20260504222139 13 98 0.0 1.6 0.00 0.00 0.00 72 1011.5
20260504221654 12 98 0.0 4.8 0.00 0.00 0.00 74 1011.5
20260504221420 13 98 1.6 4.8 0.00 0.00 0.00 74 1011.3
20260504221050 12 97 0.0 4.8 0.00 0.00 0.00 75 1011.5
20260504220917 13 93 1.6 4.8 0.00 0.00 0.00 75 1011.3
20260504220656 13 96 0.0 0.0 0.00 0.00 0.00 74 1011.2
20260504220637 13 96 0.0 0.0 0.00 0.00 0.00 73 1011.4
20260504220050 13 96 0.0 0.0 0.00 0.00 0.00 73 1011.4
20260504215917 13 96 0.0 1.6 0.00 0.00 0.00 73 1011.2
20260504215645 13 96 0.0 1.6 0.00 0.00 0.00 73 1011.4
20260504215415 13 96 0.0 1.6 0.00 0.00 0.00 74 1011.1
20260504215039 13 98 0.0 0.0 0.00 0.00 0.00 74 1011.3
20260504214913 13 103 0.0 0.0 0.00 0.00 0.00 74 1011.0
20260504214638 13 103 0.0 0.0 0.00 0.00 0.00 73 1011.2
20260504214411 13 103 0.0 0.0 0.00 0.00 0.00 73 1011.0
20260504214037 13 103 0.0 0.0 0.00 0.00 0.00 72 1011.3
20260504213908 14 103 0.0 0.0 0.00 0.00 0.00 72 1011.1
20260504213637 13 103 0.0 0.0 0.00 0.00 0.00 71 1011.3
20260504213401 14 103 0.0 0.0 0.00 0.00 0.00 70 1011.1
20260504213036 14 103 0.0 0.0 0.00 0.00 0.00 69 1011.3
20260504212901 14 103 0.0 0.0 0.00 0.00 0.00 69 1011.2
20260504212636 14 103 0.0 0.0 0.00 0.00 0.00 69 1011.2
20260504212402 14 103 0.0 0.0 0.00 0.00 0.00 69 1011.2
20260504212027 14 103 0.0 0.0 0.00 0.00 0.00 70 1011.3
20260504211858 14 103 0.0 0.0 0.00 0.00 0.00 70 1011.1
20260504211625 14 103 0.0 0.0 0.00 0.00 0.00 69 1011.4
20260504211357 14 103 0.0 0.0 0.00 0.00 0.00 70 1011.3
20260504211015 13 103 0.0 0.0 0.00 0.00 0.00 72 1011.6
20260504210857 14 103 0.0 0.0 0.00 0.00 0.00 71 1011.4
20260504210616 13 99 0.0 0.0 0.00 0.00 0.00 70 1011.7
20260504210356 14 103 0.0 0.0 0.00 0.00 0.00 69 1011.2
20260504210015 14 103 0.0 0.0 0.00 0.00 0.00 68 1011.3
20260504205855 14 103 0.0 0.0 0.00 0.00 0.00 68 1011.1
20260504205613 14 103 0.0 0.0 0.00 0.00 0.00 68 1011.3
20260504205355 15 90 0.0 0.0 0.00 0.00 0.00 68 1011.0
20260504205008 14 90 0.0 0.0 0.00 0.00 0.00 69 1011.2
20260504204853 15 103 0.0 0.0 0.00 0.00 0.00 69 1011.0
20260504204639 14 103 0.0 0.0 0.00 0.00 0.00 69 1011.2
20260504204354 15 103 0.0 0.0 0.00 0.00 0.00 69 1011.0
20260504204121 15 103 0.0 0.0 0.00 0.00 0.00 68 1011.0
20260504204107 15 103 0.0 0.0 0.00 0.00 0.00 68 1011.2
20260504203555 15 103 0.0 0.0 0.00 0.00 0.00 67 1011.1
20260504203351 15 103 0.0 0.0 0.00 0.00 0.00 67 1011.0
20260504203156 15 103 0.0 0.0 0.00 0.00 0.00 67 1011.2
20260504202848 15 103 0.0 0.0 0.00 0.00 0.00 68 1011.1
20260504202549 15 103 0.0 0.0 0.00 0.00 0.00 67 1011.2
20260504202348 15 103 1.6 0.0 0.00 0.00 0.00 67 1011.1
20260504202145 15 103 0.0 0.0 0.00 0.00 0.00 67 1011.3
20260504201848 -17 103 1.6 0.0 0.00 0.00 0.00 1011.1
20260504201540 -17 103 526.3 410.4 0.00 0.00 0.00 1011.2
20260504201346 -17 103 1.6 0.0 0.00 0.00 0.00 1011.1
20260504201048 -17 526.3 410.4 0.00 0.00 0.00 1011.2
20260504200847 -17 0.0 0.0 0.00 0.00 0.00 1011.0
20260504200641 -17 526.3 410.4 0.00 0.00 0.00 1011.2
20260504200336 -17 0.0 0.0 0.00 0.00 0.00 1010.9
20260504200038 -17 526.3 410.4 0.00 0.00 0.00 1011.1
20260504195739 -17 0.0 0.0 0.00 0.00 0.00 1010.9
20260504195540 -17 526.3 410.4 0.00 0.00 0.00 1011.1
20260504195511 -17 0.0 0.0 0.00 0.00 0.00 1011.0
20260504195049 -17 526.3 410.4 0.00 0.00 0.00 1011.2
20260504194647 -17 0.0 0.0 0.00 0.00 0.00 1011.0
20260504194605 -17 526.3 410.4 0.00 0.00 0.00 1011.2
20260504194141 -17 0.0 0.0 0.00 0.00 0.00 1010.9
20260504194040 -17 526.3 410.4 0.00 0.00 0.00 1011.1
20260504193646 -17 526.3 410.4 0.00 0.00 0.00 1011.1
20260504193640 -17 0.0 0.0 0.00 0.00 0.00 1010.9
20260504193141 -17 526.3 410.4 0.00 0.00 0.00 1011.2
20260504193042 -17 0.0 0.0 0.00 0.00 0.00 1010.9
20260504192543 -17 0.0 0.0 0.00 0.00 0.00 1010.9
20260504192220 -17 0.0 0.0 0.00 0.00 0.00 1010.9
20260504191443 -17 0.0 0.0 0.00 0.00 0.00 1010.8
20260504190942 -17 0.0 0.0 0.00 0.00 0.00 1010.8
20260504190536 -17 526.3 410.4 0.00 0.00 0.00 1011.0
20260504190441 -17 0.0 0.0 0.00 0.00 0.00 1010.8
20260504190117 -17 0.0 0.0 0.00 0.00 0.00 1010.7
20260504190107 -17 526.3 410.4 0.00 0.00 0.00 1010.9
20260504185617 -17 0.0 0.0 0.00 0.00 0.00 1010.6
20260504185606 -17 526.3 410.4 0.00 0.00 0.00 1010.9
20260504185141 -17 526.3 410.4 0.00 0.00 0.00 1010.7
20260504184838 -17 0.0 0.0 0.00 0.00 0.00 1010.6
20260504184332 -17 0.0 0.0 0.00 0.00 0.00 1010.6
20260504184013 -17 0.0 0.0 0.00 0.00 0.00 1010.7
20260504184004 -17 526.3 410.4 0.00 0.00 0.00 1010.8
20260504183646 -17 526.3 410.4 0.00 0.00 0.00 1010.8
20260504183242 -17 0.0 0.0 0.00 0.00 0.00 1010.7
20260504183010 -17 0.0 0.0 0.00 0.00 0.00 1010.7
20260504182457 -17 0.0 0.0 0.00 0.00 0.00 1010.6
20260504181644 -17 0.0 0.0 0.00 0.00 0.00 1010.6
20260504181638 -17 526.3 410.4 0.00 0.00 0.00 1010.8
20260504181412 -17 0.0 0.0 0.00 0.00 0.00 1010.6
20260504180600 -17 526.3 410.4 0.00 0.00 0.00 1010.8
20260504180550 -17 0.0 0.0 0.00 0.00 0.00 1010.6
20260504180144 -17 526.3 410.4 0.00 0.00 0.00 1010.7
20260504180045 -17 0.0 0.0 0.00 0.00 0.00 1010.6
20260504175641 -17 526.3 410.4 0.00 0.00 0.00 1010.7
20260504175542 -17 0.0 0.0 0.00 0.00 0.00 1010.6
20260504175048 -17 0.0 0.0 0.00 0.00 0.00 1010.6
20260504175037 -17 526.3 410.4 0.00 0.00 0.00 1010.8
20260504174545 -17 526.3 410.4 0.00 0.00 0.00 1010.8
20260504174538 -17 0.0 0.0 0.00 0.00 0.00 1010.6
20260504174219 -17 0.0 0.0 0.00 0.00 0.00 1010.5
20260504173538 -17 526.3 410.4 0.00 0.00 0.00 1010.7
20260504173440 -17 0.0 0.0 0.00 0.00 0.00 1010.5
20260504173134 -17 526.3 410.4 0.00 0.00 0.00 1010.7
20260504172944 -17 0.0 0.0 0.00 0.00 0.00 1010.6
20260504172939 -17 0.0 0.0 0.00 0.00 0.00 1010.6
20260504172654 -17 526.3 410.4 0.00 0.00 0.00 1010.8
20260504172208 -17 0.0 0.0 0.00 0.00 0.00 1010.6
20260504172157 -17 526.3 410.4 0.00 0.00 0.00 1010.8
20260504171338 -17 0.0 0.0 0.00 0.00 0.00 1010.6
20260504170741 -17 0.0 0.0 0.00 0.00 0.00 1010.6
20260504170539 -17 526.3 410.4 0.00 0.00 0.00 1010.8
20260504170240 -17 0.0 0.0 0.00 0.00 0.00 1010.6
20260504160247 -17 0.0 0.0 0.00 0.00 0.00 1010.9
20260504151048 -17 526.3 410.4 0.00 0.00 0.00 1011.0
20260504150956 -17 0.0 0.0 0.00 0.00 0.00 1010.9
20260504150637 -17 526.3 410.4 0.00 0.00 0.00 1011.0
20260504150439 -17 0.0 0.0 0.00 0.00 0.00 1010.9
20260504150136 -17 526.3 410.4 0.00 0.00 0.00 1011.1
20260504141149 26 98 0.0 4.8 0.00 0.00 0.00 43 1011.2
20260504141045 26 101 0.0 4.8 0.00 0.00 0.00 43 1011.3
20260504140652 26 96 0.0 1.6 0.00 0.00 0.00 42 1011.2
20260504140646 26 96 0.0 1.6 0.00 0.00 0.00 42 1011.4
20260504140149 26 96 0.0 3.2 0.00 0.00 0.00 42 1011.2
20260504130613 27 0 0.0 4.8 0.00 0.00 0.00 39 1012.0
20260504130606 27 0.0 4.8 0.00 0.00 0.00 39 1012.1
20260504130113 27 95 1.6 8.0 0.00 0.00 0.00 40 1012.1
20260504120121 26 179 1.6 9.7 0.00 0.00 0.00 44 1012.6
20260504120109 -17 526.3 410.4 0.00 0.00 0.00 1012.6
20260504120104 26 0.0 4.8 0.00 0.00 0.00 44 1012.5
20260504110138 -17 526.3 410.4 0.00 0.00 0.00 1013.1
20260504100538 -17 526.3 410.4 0.00 0.00 0.00 1013.5
20260504100442 -17 0.0 0.0 0.00 0.00 0.00 1013.5
20260504100136 -17 526.3 410.4 0.00 0.00 0.00 1013.6
20260504081739 -17 0.0 0.0 0.00 0.00 0.00 1013.8
20260504081638 -17 526.3 410.4 0.00 0.00 0.00 1013.9
20260504081231 -17 0.0 0.0 0.00 0.00 0.00 1013.8
20260504080916 -17 0.0 0.0 0.00 0.00 0.00 1013.8
20260504080140 -17 0.0 0.0 0.00 0.00 0.00 1013.7
20260504070340 -17 0.0 0.0 0.00 0.00 0.00 1013.6
20260504070139 -17 526.3 410.4 0.00 0.00 0.00 1013.7
20260504050545 10 105 0.0 0.0 0.00 0.00 0.00 82 1013.1
20260504050508 10 105 0.0 0.0 0.00 0.00 0.00 82 1013.0
20260504050144 10 105 0.0 0.0 0.00 0.00 0.00 83 1013.0
20260504050008 10 105 0.0 0.0 0.00 0.00 0.00 83 1012.9
20260504045543 10 105 0.0 0.0 0.00 0.00 0.00 84 1013.0
20260504045506 10 105 0.0 0.0 0.00 0.00 0.00 84 1012.8